STARLINK-2448 (48111 NORAD) Tracking and Keplerian Element Data

This shows tracking and keplerian element data for the satellite.

Feedback or suggestion? Click here.




ElementValue
Catalog48111
NameSTARLINK-2448
Epoch Orbit196
Epoch Day173.91668981
Epoch Year2021
RAAN326.6629
Inclination53.0546
Eccentricity0.0001569
Argument of Perigee53.2594
Mean Anonmoly58.293
Mean Motion15.22683354
Decay Rate-0.01058903
L11 48111U 21027V 21173.91668981 -.01058903 00000-0 -48978-1 0 9994
L22 48111 53.0546 326.6629 0001569 53.2594 58.2930 15.22683354 1965

Live tracking and technical data element details for STARLINK-2448 (NORAD 48111). STARLINK-2448 can be tracked NOW for your location showing map with azimuth and elevation plus other details from your city location.

Track the satellite on the map from your city or location and see movement details for azimuth, elevation, latitude, longitude, range, height, and movement on the map or in text.







IsCatalogInMostPopularTable: catalog: 48111, numindb: 34
Update: records affected: 1



GetName: 48111 STARLINK-2448

Hit Count: updated at: Thu, 24 Jun 2021 02:41:54 GMT